contact:dominique.lefevre@mio.osupytheas.fr, maurice.libes@osupytheas.fr, didier.mallarino@osupytheas.fr
Project:EMSO http://www.emso-fr.org/EMSO-France
Depth: 2436.0 m
Title:EMSO Ligure Ouest : Data MII capteur CSTAR
DateTime,Latitude,Longitude,Instrument_Serial,Reference_Counts,Signal_Counts,Corrected_Signal_raw_counts,Calculated_Beam_c_inverse_meters,Internal_thermistor_counts
DateTime,Latitude,Longitude,Instrument_Serial,Reference_Counts,Signal_Counts,Corrected_Signal_raw_counts,Calculated_Beam_c_inverse_meters,Internal_thermistor_counts
2020-10-26T00:02:53,42.805,6.029,CST-1368DR,5859,8196,15073,0.142,551
2020-10-26T00:05:55,42.805,6.029,CST-1368DR,5859,8196,15072,0.142,551
2020-10-26T00:08:56,42.805,6.029,CST-1368DR,5859,8195,15070,0.142,551
2020-10-26T00:11:58,42.805,6.029,CST-1368DR,5859,8198,15076,0.141,551
2020-10-26T00:15:00,42.805,6.029,CST-1368DR,5859,8197,15074,0.141,551
2020-10-26T00:18:01,42.805,6.029,CST-1368DR,5859,8198,15076,0.141,551
2020-10-26T00:21:03,42.805,6.029,CST-1368DR,5859,8197,15075,0.141,551
2020-10-26T00:24:04,42.805,6.029,CST-1368DR,5859,8195,15071,0.142,551
2020-10-26T00:27:06,42.805,6.029,CST-1368DR,5859,8198,15076,0.141,551
2020-10-26T00:30:07,42.805,6.029,CST-1368DR,5859,8199,15078,0.140,551
2020-10-26T00:33:09,42.805,6.029,CST-1368DR,5859,8198,15076,0.141,551
2020-10-26T00:36:11,42.805,6.029,CST-1368DR,5859,8198,15077,0.141,551
2020-10-26T00:39:12,42.805,6.029,CST-1368DR,5859,8199,15078,0.140,551
2020-10-26T00:42:14,42.805,6.029,CST-1368DR,5859,8199,15077,0.141,551
2020-10-26T00:45:15,42.805,6.029,CST-1368DR,5859,8198,15076,0.141,551
2020-10-26T00:48:17,42.805,6.029,CST-1368DR,5859,8197,15075,0.141,551
2020-10-26T00:51:18,42.805,6.029,CST-1368DR,5859,8193,15067,0.143,551
2020-10-26T00:54:20,42.805,6.029,CST-1368DR,5859,8198,15076,0.141,551
2020-10-26T00:57:22,42.805,6.029,CST-1368DR,5859,8198,15076,0.141,551
2020-10-26T01:00:23,42.805,6.029,CST-1368DR,5859,8198,15076,0.141,551
2020-10-26T01:03:25,42.805,6.029,CST-1368DR,5859,8198,15076,0.141,551
2020-10-26T01:06:26,42.805,6.029,CST-1368DR,5859,8198,15076,0.141,551
2020-10-26T01:09:28,42.805,6.029,CST-1368DR,5859,8198,15076,0.141,551
2020-10-26T01:12:30,42.805,6.029,CST-1368DR,5859,8199,15078,0.140,551
2020-10-26T01:15:31,42.805,6.029,CST-1368DR,5859,8198,15076,0.141,551
2020-10-26T01:18:33,42.805,6.029,CST-1368DR,5859,8198,15077,0.141,551
2020-10-26T01:21:34,42.805,6.029,CST-1368DR,5859,8198,15077,0.141,551
2020-10-26T01:24:36,42.805,6.029,CST-1368DR,5859,8198,15077,0.141,551
2020-10-26T01:27:37,42.805,6.029,CST-1368DR,5859,8199,15077,0.141,551
2020-10-26T01:30:39,42.805,6.029,CST-1368DR,5859,8197,15074,0.141,551
2020-10-26T01:33:41,42.805,6.029,CST-1368DR,5859,8195,15071,0.142,551
2020-10-26T01:36:42,42.805,6.029,CST-1368DR,5859,8198,15076,0.141,551
2020-10-26T01:39:44,42.805,6.029,CST-1368DR,5859,8198,15076,0.141,551
2020-10-26T01:42:45,42.805,6.029,CST-1368DR,5859,8198,15076,0.141,551
2020-10-26T01:45:47,42.805,6.029,CST-1368DR,5859,8198,15077,0.141,551
2020-10-26T01:48:49,42.805,6.029,CST-1368DR,5859,8197,15074,0.141,551
2020-10-26T01:51:50,42.805,6.029,CST-1368DR,5859,8196,15073,0.142,551
2020-10-26T01:54:52,42.805,6.029,CST-1368DR,5859,8198,15076,0.141,551
2020-10-26T01:57:53,42.805,6.029,CST-1368DR,5859,8198,15076,0.141,551
2020-10-26T02:00:55,42.805,6.029,CST-1368DR,5859,8197,15075,0.141,551
2020-10-26T02:03:56,42.805,6.029,CST-1368DR,5859,8197,15074,0.141,551
2020-10-26T02:06:58,42.805,6.029,CST-1368DR,5859,8197,15075,0.141,551
2020-10-26T02:10:00,42.805,6.029,CST-1368DR,5859,8197,15074,0.141,551
2020-10-26T02:13:01,42.805,6.029,CST-1368DR,5859,8196,15073,0.142,551
2020-10-26T02:16:03,42.805,6.029,CST-1368DR,5859,8197,15075,0.141,551
2020-10-26T02:19:04,42.805,6.029,CST-1368DR,5859,8196,15073,0.142,551
2020-10-26T02:22:06,42.805,6.029,CST-1368DR,5859,8196,15073,0.142,551
2020-10-26T02:25:07,42.805,6.029,CST-1368DR,5859,8191,15064,0.144,551
2020-10-26T02:28:09,42.805,6.029,CST-1368DR,5859,8198,15076,0.141,551
2020-10-26T02:31:11,42.805,6.029,CST-1368DR,5859,8196,15072,0.142,551
2020-10-26T02:34:12,42.805,6.029,CST-1368DR,5859,8198,15076,0.141,551
2020-10-26T02:37:14,42.805,6.029,CST-1368DR,5859,8192,15065,0.144,551
2020-10-26T02:40:15,42.805,6.029,CST-1368DR,5859,8197,15075,0.141,551
2020-10-26T02:43:17,42.805,6.029,CST-1368DR,5859,8197,15075,0.141,551
2020-10-26T02:46:19,42.805,6.029,CST-1368DR,5859,8197,15074,0.141,551
2020-10-26T02:49:20,42.805,6.029,CST-1368DR,5859,8196,15073,0.142,551
2020-10-26T02:52:22,42.805,6.029,CST-1368DR,5859,8195,15070,0.142,551
2020-10-26T02:55:23,42.805,6.029,CST-1368DR,5859,8196,15073,0.142,551
2020-10-26T02:58:25,42.805,6.029,CST-1368DR,5859,8196,15072,0.142,551
2020-10-26T03:01:26,42.805,6.029,CST-1368DR,5859,8198,15076,0.141,551
2020-10-26T03:04:28,42.805,6.029,CST-1368DR,5859,8197,15074,0.141,551
2020-10-26T03:07:30,42.805,6.029,CST-1368DR,5859,8197,15074,0.141,551
2020-10-26T03:10:31,42.805,6.029,CST-1368DR,5858,8196,15075,0.141,551
2020-10-26T03:13:33,42.805,6.029,CST-1368DR,5859,8196,15072,0.142,551
2020-10-26T03:16:34,42.805,6.029,CST-1368DR,5858,8195,15072,0.142,551
2020-10-26T03:19:36,42.805,6.029,CST-1368DR,5858,8196,15076,0.141,551
2020-10-26T03:22:37,42.805,6.029,CST-1368DR,5858,8196,15075,0.141,551
2020-10-26T03:25:39,42.805,6.029,CST-1368DR,5859,8197,15074,0.141,551
2020-10-26T03:28:41,42.805,6.029,CST-1368DR,5859,8195,15070,0.142,551
2020-10-26T03:31:42,42.805,6.029,CST-1368DR,5858,8197,15076,0.141,551
2020-10-26T03:34:44,42.805,6.029,CST-1368DR,5858,8197,15077,0.141,551
2020-10-26T03:37:45,42.805,6.029,CST-1368DR,5859,8198,15076,0.141,551
2020-10-26T03:40:47,42.805,6.029,CST-1368DR,5858,8197,15076,0.141,551
2020-10-26T03:43:49,42.805,6.029,CST-1368DR,5858,8197,15076,0.141,551
2020-10-26T03:46:50,42.805,6.029,CST-1368DR,5858,8196,15075,0.141,551
2020-10-26T03:49:52,42.805,6.029,CST-1368DR,5858,8197,15077,0.141,551
2020-10-26T03:52:53,42.805,6.029,CST-1368DR,5858,8196,15076,0.141,551
2020-10-26T03:55:55,42.805,6.029,CST-1368DR,5858,8196,15075,0.141,550
2020-10-26T03:58:56,42.805,6.029,CST-1368DR,5859,8196,15072,0.142,551
2020-10-26T04:01:58,42.805,6.029,CST-1368DR,5858,8196,15075,0.141,551
2020-10-26T04:05:00,42.805,6.029,CST-1368DR,5859,8197,15074,0.141,551
2020-10-26T04:08:01,42.805,6.029,CST-1368DR,5858,8197,15077,0.141,551
2020-10-26T04:11:03,42.805,6.029,CST-1368DR,5858,8196,15075,0.141,551
2020-10-26T04:14:04,42.805,6.029,CST-1368DR,5858,8195,15073,0.142,551
2020-10-26T04:17:06,42.805,6.029,CST-1368DR,5858,8194,15072,0.142,551
2020-10-26T04:20:08,42.805,6.029,CST-1368DR,5858,8195,15074,0.141,551
2020-10-26T04:23:09,42.805,6.029,CST-1368DR,5858,8195,15072,0.142,551
2020-10-26T04:26:11,42.805,6.029,CST-1368DR,5858,8196,15075,0.141,551
2020-10-26T04:29:12,42.805,6.029,CST-1368DR,5858,8196,15074,0.141,551
2020-10-26T04:32:14,42.805,6.029,CST-1368DR,5858,8196,15075,0.141,551
2020-10-26T04:35:15,42.805,6.029,CST-1368DR,5858,8196,15075,0.141,551
2020-10-26T04:38:17,42.805,6.029,CST-1368DR,5858,8195,15073,0.142,551
2020-10-26T04:41:19,42.805,6.029,CST-1368DR,5858,8195,15072,0.142,551
2020-10-26T04:44:20,42.805,6.029,CST-1368DR,5858,8193,15070,0.142,551
2020-10-26T04:47:22,42.805,6.029,CST-1368DR,5858,8193,15070,0.142,551
2020-10-26T04:50:23,42.805,6.029,CST-1368DR,5858,8194,15071,0.142,551
2020-10-26T04:53:25,42.805,6.029,CST-1368DR,5858,8194,15071,0.142,551
2020-10-26T04:56:26,42.805,6.029,CST-1368DR,5858,8194,15072,0.142,551
2020-10-26T04:59:28,42.805,6.029,CST-1368DR,5858,8194,15071,0.142,551
2020-10-26T05:02:30,42.805,6.029,CST-1368DR,5858,8194,15071,0.142,551
2020-10-26T05:05:31,42.805,6.029,CST-1368DR,5858,8194,15072,0.142,551
2020-10-26T05:08:33,42.805,6.029,CST-1368DR,5858,8194,15072,0.142,551
2020-10-26T05:11:34,42.805,6.029,CST-1368DR,5858,8193,15070,0.142,551
2020-10-26T05:14:36,42.805,6.029,CST-1368DR,5858,8195,15072,0.142,551
2020-10-26T05:17:38,42.805,6.029,CST-1368DR,5858,8194,15072,0.142,551
2020-10-26T05:20:39,42.805,6.029,CST-1368DR,5858,8194,15072,0.142,551
2020-10-26T05:23:41,42.805,6.029,CST-1368DR,5858,8194,15072,0.142,551
2020-10-26T05:26:42,42.805,6.029,CST-1368DR,5858,8193,15069,0.143,551
2020-10-26T05:29:44,42.805,6.029,CST-1368DR,5858,8195,15072,0.142,551
2020-10-26T05:32:45,42.805,6.029,CST-1368DR,5858,8195,15072,0.142,551
2020-10-26T05:35:47,42.805,6.029,CST-1368DR,5858,8194,15071,0.142,551
2020-10-26T05:38:49,42.805,6.029,CST-1368DR,5858,8195,15072,0.142,551
2020-10-26T05:41:50,42.805,6.029,CST-1368DR,5858,8194,15072,0.142,551
2020-10-26T05:44:52,42.805,6.029,CST-1368DR,5858,8192,15068,0.143,551
2020-10-26T05:47:53,42.805,6.029,CST-1368DR,5858,8195,15073,0.142,551
2020-10-26T05:50:55,42.805,6.029,CST-1368DR,5858,8193,15070,0.142,551
2020-10-26T05:53:57,42.805,6.029,CST-1368DR,5858,8194,15071,0.142,551
2020-10-26T05:56:58,42.805,6.029,CST-1368DR,5858,8195,15072,0.142,551
2020-10-26T06:00:00,42.805,6.029,CST-1368DR,5858,8195,15072,0.142,551
2020-10-26T06:03:01,42.805,6.029,CST-1368DR,5858,8194,15072,0.142,551
2020-10-26T06:06:03,42.805,6.029,CST-1368DR,5858,8195,15073,0.142,551
2020-10-26T06:09:04,42.805,6.029,CST-1368DR,5858,8194,15072,0.142,551
2020-10-26T06:12:06,42.805,6.029,CST-1368DR,5858,8194,15072,0.142,551
2020-10-26T06:15:08,42.805,6.029,CST-1368DR,5858,8195,15073,0.142,551
2020-10-26T06:18:09,42.805,6.029,CST-1368DR,5858,8195,15073,0.142,551
2020-10-26T06:21:11,42.805,6.029,CST-1368DR,5858,8193,15070,0.142,551
2020-10-26T06:24:12,42.805,6.029,CST-1368DR,5858,8195,15072,0.142,551
2020-10-26T06:27:14,42.805,6.029,CST-1368DR,5858,8195,15072,0.142,551
2020-10-26T06:30:16,42.805,6.029,CST-1368DR,5858,8191,15066,0.143,551
2020-10-26T06:33:17,42.805,6.029,CST-1368DR,5858,8194,15072,0.142,551
2020-10-26T06:36:19,42.805,6.029,CST-1368DR,5858,8192,15068,0.143,551
2020-10-26T06:39:20,42.805,6.029,CST-1368DR,5858,8194,15072,0.142,551
2020-10-26T06:42:22,42.805,6.029,CST-1368DR,5858,8190,15064,0.144,551
2020-10-26T06:45:23,42.805,6.029,CST-1368DR,5858,8195,15072,0.142,551
2020-10-26T06:48:25,42.805,6.029,CST-1368DR,5858,8194,15071,0.142,551
2020-10-26T06:51:27,42.805,6.029,CST-1368DR,5858,8195,15073,0.142,551
2020-10-26T06:54:28,42.805,6.029,CST-1368DR,5858,8194,15072,0.142,551
2020-10-26T06:57:30,42.805,6.029,CST-1368DR,5858,8195,15073,0.142,551
2020-10-26T07:00:31,42.805,6.029,CST-1368DR,5858,8193,15069,0.143,551
2020-10-26T07:03:33,42.805,6.029,CST-1368DR,5858,8195,15072,0.142,551
2020-10-26T07:06:34,42.805,6.029,CST-1368DR,5858,8195,15073,0.142,551
2020-10-26T07:09:36,42.805,6.029,CST-1368DR,5858,8195,15073,0.142,551
2020-10-26T07:12:38,42.805,6.029,CST-1368DR,5858,8195,15073,0.142,551
2020-10-26T07:15:39,42.805,6.029,CST-1368DR,5858,8194,15072,0.142,551
2020-10-26T07:18:41,42.805,6.029,CST-1368DR,5858,8194,15072,0.142,551
2020-10-26T07:21:42,42.805,6.029,CST-1368DR,5858,8195,15072,0.142,551
2020-10-26T07:24:44,42.805,6.029,CST-1368DR,5858,8194,15071,0.142,551
2020-10-26T07:27:45,42.805,6.029,CST-1368DR,5858,8194,15072,0.142,551
2020-10-26T07:30:47,42.805,6.029,CST-1368DR,5858,8195,15073,0.142,551
2020-10-26T07:33:49,42.805,6.029,CST-1368DR,5858,8193,15070,0.142,551
2020-10-26T07:36:50,42.805,6.029,CST-1368DR,5858,8194,15072,0.142,551
2020-10-26T07:39:52,42.805,6.029,CST-1368DR,5858,8194,15072,0.142,551
2020-10-26T07:42:53,42.805,6.029,CST-1368DR,5858,8195,15073,0.142,551
2020-10-26T07:45:55,42.805,6.029,CST-1368DR,5858,8194,15072,0.142,551
2020-10-26T07:48:57,42.805,6.029,CST-1368DR,5858,8195,15072,0.142,551
2020-10-26T07:51:58,42.805,6.029,CST-1368DR,5858,8195,15072,0.142,551
2020-10-26T07:55:00,42.805,6.029,CST-1368DR,5858,8194,15072,0.142,551
2020-10-26T07:58:01,42.805,6.029,CST-1368DR,5858,8194,15071,0.142,551
2020-10-26T08:01:03,42.805,6.029,CST-1368DR,5858,8193,15070,0.142,551
2020-10-26T08:04:04,42.805,6.029,CST-1368DR,5858,8194,15071,0.142,551
2020-10-26T08:07:06,42.805,6.029,CST-1368DR,5858,8193,15070,0.142,551
2020-10-26T08:10:08,42.805,6.029,CST-1368DR,5858,8194,15071,0.142,551
2020-10-26T08:13:09,42.805,6.029,CST-1368DR,5858,8194,15072,0.142,551
2020-10-26T08:16:11,42.805,6.029,CST-1368DR,5858,8194,15072,0.142,551
2020-10-26T08:19:12,42.805,6.029,CST-1368DR,5858,8194,15072,0.142,551
2020-10-26T08:22:14,42.805,6.029,CST-1368DR,5858,8194,15072,0.142,551
2020-10-26T08:25:15,42.805,6.029,CST-1368DR,5858,8194,15071,0.142,551
2020-10-26T08:28:17,42.805,6.029,CST-1368DR,5858,8194,15072,0.142,551
2020-10-26T08:31:19,42.805,6.029,CST-1368DR,5858,8195,15073,0.142,551
2020-10-26T08:34:20,42.805,6.029,CST-1368DR,5857,8194,15074,0.141,551
2020-10-26T08:37:22,42.805,6.029,CST-1368DR,5858,8194,15072,0.142,551
2020-10-26T08:40:23,42.805,6.029,CST-1368DR,5858,8194,15072,0.142,551
2020-10-26T08:43:25,42.805,6.029,CST-1368DR,5858,8194,15071,0.142,551
2020-10-26T08:46:27,42.805,6.029,CST-1368DR,5858,8195,15073,0.142,551
2020-10-26T08:49:28,42.805,6.029,CST-1368DR,5858,8195,15073,0.142,551
2020-10-26T08:52:30,42.805,6.029,CST-1368DR,5858,8193,15070,0.142,551
2020-10-26T08:55:31,42.805,6.029,CST-1368DR,5857,8194,15074,0.141,551
2020-10-26T08:58:33,42.805,6.029,CST-1368DR,5858,8193,15070,0.142,551
2020-10-26T09:01:34,42.805,6.029,CST-1368DR,5858,8194,15071,0.142,551
2020-10-26T09:04:36,42.805,6.029,CST-1368DR,5857,8193,15072,0.142,551
2020-10-26T09:07:38,42.805,6.029,CST-1368DR,5857,8194,15074,0.141,551
2020-10-26T09:10:39,42.805,6.029,CST-1368DR,5857,8194,15073,0.142,551
2020-10-26T09:13:41,42.805,6.029,CST-1368DR,5857,8191,15069,0.143,551
2020-10-26T09:16:42,42.805,6.029,CST-1368DR,5857,8192,15071,0.142,551
2020-10-26T09:19:44,42.805,6.029,CST-1368DR,5857,8193,15073,0.142,551
2020-10-26T09:22:46,42.805,6.029,CST-1368DR,5857,8195,15075,0.141,551
2020-10-26T09:25:47,42.805,6.029,CST-1368DR,5857,8195,15075,0.141,551
2020-10-26T09:28:49,42.805,6.029,CST-1368DR,5857,8194,15074,0.141,551
2020-10-26T09:31:50,42.805,6.029,CST-1368DR,5857,8194,15073,0.142,551
2020-10-26T09:34:52,42.805,6.029,CST-1368DR,5857,8194,15074,0.141,551
2020-10-26T09:37:53,42.805,6.029,CST-1368DR,5857,8193,15073,0.142,551
2020-10-26T09:40:55,42.805,6.029,CST-1368DR,5857,8194,15074,0.141,551
2020-10-26T09:43:57,42.805,6.029,CST-1368DR,5857,8194,15074,0.141,551
2020-10-26T09:46:58,42.805,6.029,CST-1368DR,5857,8192,15070,0.142,551
2020-10-26T09:50:00,42.805,6.029,CST-1368DR,5857,8194,15074,0.141,551
2020-10-26T09:53:01,42.805,6.029,CST-1368DR,5857,8194,15073,0.142,551
2020-10-26T09:56:03,42.805,6.029,CST-1368DR,5857,8193,15072,0.142,551
2020-10-26T09:59:04,42.805,6.029,CST-1368DR,5857,8194,15074,0.141,551
2020-10-26T10:02:06,42.805,6.029,CST-1368DR,5857,8194,15074,0.141,551
2020-10-26T10:05:08,42.805,6.029,CST-1368DR,5857,8194,15074,0.141,551
2020-10-26T10:08:09,42.805,6.029,CST-1368DR,5857,8194,15074,0.141,551
2020-10-26T10:11:11,42.805,6.029,CST-1368DR,5857,8193,15073,0.142,551
2020-10-26T10:14:12,42.805,6.029,CST-1368DR,5857,8192,15070,0.142,551
2020-10-26T10:17:14,42.805,6.029,CST-1368DR,5857,8194,15073,0.142,551
2020-10-26T10:20:15,42.805,6.029,CST-1368DR,5857,8192,15071,0.142,551
2020-10-26T10:23:17,42.805,6.029,CST-1368DR,5857,8192,15070,0.142,551
2020-10-26T10:26:19,42.805,6.029,CST-1368DR,5857,8194,15074,0.141,551
2020-10-26T10:29:20,42.805,6.029,CST-1368DR,5857,8194,15073,0.142,551
2020-10-26T10:32:22,42.805,6.029,CST-1368DR,5857,8194,15074,0.141,551
2020-10-26T10:35:23,42.805,6.029,CST-1368DR,5857,8194,15074,0.141,551
2020-10-26T10:38:25,42.805,6.029,CST-1368DR,5857,8193,15073,0.142,551
2020-10-26T10:41:27,42.805,6.029,CST-1368DR,5857,8193,15073,0.142,551
2020-10-26T10:44:28,42.805,6.029,CST-1368DR,5857,8193,15073,0.142,550
2020-10-26T10:47:30,42.805,6.029,CST-1368DR,5857,8194,15074,0.141,551
2020-10-26T10:50:31,42.805,6.029,CST-1368DR,5857,8194,15074,0.141,551
2020-10-26T10:53:33,42.805,6.029,CST-1368DR,5857,8192,15069,0.143,551
2020-10-26T10:56:34,42.805,6.029,CST-1368DR,5857,8193,15073,0.142,551
2020-10-26T10:59:36,42.805,6.029,CST-1368DR,5857,8194,15074,0.141,551
2020-10-26T11:02:38,42.805,6.029,CST-1368DR,5857,8194,15073,0.142,551
2020-10-26T11:05:39,42.805,6.029,CST-1368DR,5857,8193,15073,0.142,551
2020-10-26T11:08:41,42.805,6.029,CST-1368DR,5857,8193,15073,0.142,550
2020-10-26T11:11:42,42.805,6.029,CST-1368DR,5857,8193,15072,0.142,551
2020-10-26T11:14:44,42.805,6.029,CST-1368DR,5857,8190,15067,0.143,551
2020-10-26T11:17:46,42.805,6.029,CST-1368DR,5857,8194,15073,0.142,551
2020-10-26T11:20:47,42.805,6.029,CST-1368DR,5857,8194,15073,0.142,551
2020-10-26T11:23:49,42.805,6.029,CST-1368DR,5857,8193,15071,0.142,551
2020-10-26T11:26:50,42.805,6.029,CST-1368DR,5857,8193,15071,0.142,551
2020-10-26T11:29:52,42.805,6.029,CST-1368DR,5857,8193,15072,0.142,551
2020-10-26T11:32:53,42.805,6.029,CST-1368DR,5857,8193,15072,0.142,551
2020-10-26T11:35:55,42.805,6.029,CST-1368DR,5857,8193,15073,0.142,551
2020-10-26T11:38:57,42.805,6.029,CST-1368DR,5857,8194,15074,0.141,551
2020-10-26T11:41:58,42.805,6.029,CST-1368DR,5857,8193,15072,0.142,551
2020-10-26T11:45:00,42.805,6.029,CST-1368DR,5857,8194,15074,0.141,551
2020-10-26T11:48:01,42.805,6.029,CST-1368DR,5857,8193,15073,0.142,551
2020-10-26T11:51:03,42.805,6.029,CST-1368DR,5857,8194,15073,0.142,551
2020-10-26T11:54:05,42.805,6.029,CST-1368DR,5857,8193,15073,0.142,551
2020-10-26T11:57:06,42.805,6.029,CST-1368DR,5857,8192,15071,0.142,551
2020-10-26T12:00:08,42.805,6.029,CST-1368DR,5857,8194,15074,0.141,550
2020-10-26T12:03:09,42.805,6.029,CST-1368DR,5857,8192,15070,0.142,551
2020-10-26T12:06:11,42.805,6.029,CST-1368DR,5857,8195,15075,0.141,551
2020-10-26T12:09:12,42.805,6.029,CST-1368DR,5857,8194,15073,0.142,551
2020-10-26T12:12:14,42.805,6.029,CST-1368DR,5857,8194,15074,0.141,551
2020-10-26T12:15:16,42.805,6.029,CST-1368DR,5857,8194,15073,0.142,551
2020-10-26T12:18:17,42.805,6.029,CST-1368DR,5857,8194,15074,0.141,551
2020-10-26T12:21:19,42.805,6.029,CST-1368DR,5857,8195,15075,0.141,551
2020-10-26T12:24:20,42.805,6.029,CST-1368DR,5857,8191,15069,0.143,551
2020-10-26T12:27:22,42.805,6.029,CST-1368DR,5857,8192,15070,0.142,551
2020-10-26T12:30:23,42.805,6.029,CST-1368DR,5857,8192,15071,0.142,551
2020-10-26T12:33:25,42.805,6.029,CST-1368DR,5857,8195,15075,0.141,551
2020-10-26T12:36:27,42.805,6.029,CST-1368DR,5857,8193,15072,0.142,551
2020-10-26T12:39:28,42.805,6.029,CST-1368DR,5857,8194,15074,0.141,551
2020-10-26T12:42:30,42.805,6.029,CST-1368DR,5857,8194,15074,0.141,551
2020-10-26T12:45:31,42.805,6.029,CST-1368DR,5857,8193,15073,0.142,551
2020-10-26T12:48:33,42.805,6.029,CST-1368DR,5857,8194,15074,0.141,551
2020-10-26T12:51:35,42.805,6.029,CST-1368DR,5857,8194,15074,0.141,550
2020-10-26T12:54:36,42.805,6.029,CST-1368DR,5857,8194,15073,0.142,551
2020-10-26T12:57:38,42.805,6.029,CST-1368DR,5857,8194,15074,0.141,551
2020-10-26T13:00:39,42.805,6.029,CST-1368DR,5857,8195,15075,0.141,551
2020-10-26T13:03:41,42.805,6.029,CST-1368DR,5857,8193,15073,0.142,551
2020-10-26T13:06:42,42.805,6.029,CST-1368DR,5857,8194,15073,0.142,551
2020-10-26T13:09:44,42.805,6.029,CST-1368DR,5857,8194,15074,0.141,551
2020-10-26T13:12:46,42.805,6.029,CST-1368DR,5857,8194,15073,0.142,551
2020-10-26T13:15:47,42.805,6.029,CST-1368DR,5857,8195,15075,0.141,551
2020-10-26T13:18:49,42.805,6.029,CST-1368DR,5857,8194,15073,0.142,551
2020-10-26T13:21:50,42.805,6.029,CST-1368DR,5857,8193,15073,0.142,551
2020-10-26T13:24:52,42.805,6.029,CST-1368DR,5857,8193,15073,0.142,551
2020-10-26T13:27:54,42.805,6.029,CST-1368DR,5857,8194,15074,0.141,551
2020-10-26T13:30:55,42.805,6.029,CST-1368DR,5857,8193,15072,0.142,551
2020-10-26T13:33:57,42.805,6.029,CST-1368DR,5857,8194,15074,0.141,551
2020-10-26T13:36:58,42.805,6.029,CST-1368DR,5857,8194,15074,0.141,551
2020-10-26T13:40:00,42.805,6.029,CST-1368DR,5857,8194,15073,0.142,551
2020-10-26T13:43:01,42.805,6.029,CST-1368DR,5857,8195,15075,0.141,551
2020-10-26T13:46:03,42.805,6.029,CST-1368DR,5857,8195,15075,0.141,551
2020-10-26T13:49:05,42.805,6.029,CST-1368DR,5857,8194,15074,0.141,551
2020-10-26T13:52:06,42.805,6.029,CST-1368DR,5857,8194,15073,0.142,551
2020-10-26T13:55:08,42.805,6.029,CST-1368DR,5857,8194,15074,0.141,551
2020-10-26T13:58:09,42.805,6.029,CST-1368DR,5857,8193,15072,0.142,551
2020-10-26T14:01:11,42.805,6.029,CST-1368DR,5857,8194,15073,0.142,551
2020-10-26T14:04:12,42.805,6.029,CST-1368DR,5857,8194,15074,0.141,551
2020-10-26T14:07:14,42.805,6.029,CST-1368DR,5857,8194,15074,0.141,551
2020-10-26T14:10:16,42.805,6.029,CST-1368DR,5857,8193,15072,0.142,550
2020-10-26T14:13:17,42.805,6.029,CST-1368DR,5857,8193,15073,0.142,551
2020-10-26T14:16:19,42.805,6.029,CST-1368DR,5857,8194,15074,0.141,551
2020-10-26T14:19:20,42.805,6.029,CST-1368DR,5857,8193,15073,0.142,551
2020-10-26T14:22:22,42.805,6.029,CST-1368DR,5857,8194,15074,0.141,551
2020-10-26T14:25:24,42.805,6.029,CST-1368DR,5857,8194,15073,0.142,551
2020-10-26T14:28:25,42.805,6.029,CST-1368DR,5857,8194,15073,0.142,551
2020-10-26T14:31:27,42.805,6.029,CST-1368DR,5857,8193,15073,0.142,551
2020-10-26T14:34:28,42.805,6.029,CST-1368DR,5857,8194,15073,0.142,551
2020-10-26T14:37:30,42.805,6.029,CST-1368DR,5857,8194,15074,0.141,551
2020-10-26T14:40:31,42.805,6.029,CST-1368DR,5857,8194,15074,0.141,551
2020-10-26T14:43:33,42.805,6.029,CST-1368DR,5857,8194,15074,0.141,551
2020-10-26T14:46:35,42.805,6.029,CST-1368DR,5857,8193,15073,0.142,551
2020-10-26T14:49:36,42.805,6.029,CST-1368DR,5857,8194,15074,0.141,551
2020-10-26T14:52:38,42.805,6.029,CST-1368DR,5857,8194,15074,0.141,551
2020-10-26T14:55:39,42.805,6.029,CST-1368DR,5857,8191,15069,0.143,551
2020-10-26T14:58:41,42.805,6.029,CST-1368DR,5857,8194,15074,0.141,551
2020-10-26T15:01:43,42.805,6.029,CST-1368DR,5857,8194,15074,0.141,551
2020-10-26T15:04:44,42.805,6.029,CST-1368DR,5857,8194,15074,0.141,551
2020-10-26T15:07:46,42.805,6.029,CST-1368DR,5857,8193,15072,0.142,551
2020-10-26T15:10:47,42.805,6.029,CST-1368DR,5857,8193,15073,0.142,551
2020-10-26T15:13:49,42.805,6.029,CST-1368DR,5857,8192,15070,0.142,551
2020-10-26T15:16:50,42.805,6.029,CST-1368DR,5857,8192,15070,0.142,551
2020-10-26T15:19:52,42.805,6.029,CST-1368DR,5857,8193,15073,0.142,551
2020-10-26T15:22:54,42.805,6.029,CST-1368DR,5857,8194,15074,0.141,551
2020-10-26T15:25:55,42.805,6.029,CST-1368DR,5857,8194,15073,0.142,551
2020-10-26T15:28:57,42.805,6.029,CST-1368DR,5857,8193,15073,0.142,551
2020-10-26T15:31:58,42.805,6.029,CST-1368DR,5857,8193,15072,0.142,551
2020-10-26T15:35:00,42.805,6.029,CST-1368DR,5857,8193,15072,0.142,551
2020-10-26T15:38:01,42.805,6.029,CST-1368DR,5857,8194,15073,0.142,551
2020-10-26T15:41:03,42.805,6.029,CST-1368DR,5857,8194,15074,0.141,551
2020-10-26T15:44:05,42.805,6.029,CST-1368DR,5857,8193,15072,0.142,551
2020-10-26T15:47:06,42.805,6.029,CST-1368DR,5857,8194,15073,0.142,551
2020-10-26T15:50:08,42.805,6.029,CST-1368DR,5856,8191,15071,0.142,551
2020-10-26T15:53:09,42.805,6.029,CST-1368DR,5857,8194,15074,0.141,551
2020-10-26T15:56:11,42.805,6.029,CST-1368DR,5857,8194,15073,0.142,551
2020-10-26T15:59:13,42.805,6.029,CST-1368DR,5857,8194,15073,0.142,551
2020-10-26T16:02:14,42.805,6.029,CST-1368DR,5857,8194,15074,0.141,551
2020-10-26T16:05:16,42.805,6.029,CST-1368DR,5857,8193,15072,0.142,551
2020-10-26T16:08:17,42.805,6.029,CST-1368DR,5856,8194,15076,0.141,551
2020-10-26T16:11:19,42.805,6.029,CST-1368DR,5856,8194,15075,0.141,551
2020-10-26T16:14:20,42.805,6.029,CST-1368DR,5856,8194,15075,0.141,551
2020-10-26T16:17:22,42.805,6.029,CST-1368DR,5856,8190,15070,0.142,551
2020-10-26T16:20:24,42.805,6.029,CST-1368DR,5856,8194,15076,0.141,551
2020-10-26T16:23:25,42.805,6.029,CST-1368DR,5856,8193,15075,0.141,551
2020-10-26T16:26:27,42.805,6.029,CST-1368DR,5856,8194,15075,0.141,551
2020-10-26T16:29:28,42.805,6.029,CST-1368DR,5856,8193,15075,0.141,551
2020-10-26T16:32:30,42.805,6.029,CST-1368DR,5856,8193,15075,0.141,551
2020-10-26T16:35:32,42.805,6.029,CST-1368DR,5856,8192,15073,0.142,551
2020-10-26T16:38:33,42.805,6.029,CST-1368DR,5856,8194,15076,0.141,551
2020-10-26T16:41:35,42.805,6.029,CST-1368DR,5856,8193,15075,0.141,551
2020-10-26T16:44:36,42.805,6.029,CST-1368DR,5856,8192,15072,0.142,551
2020-10-26T16:47:38,42.805,6.029,CST-1368DR,5856,8192,15072,0.142,551
2020-10-26T16:50:39,42.805,6.029,CST-1368DR,5856,8193,15074,0.141,551
2020-10-26T16:53:41,42.805,6.029,CST-1368DR,5856,8192,15072,0.142,551